STARLINK-5637, 55432

Orbit data source: Space-Track

STARLINK-5637, 55432 is a payload satellite owned by SpaceX/Seattle (US) in LEO that was launched on Tue, 31 Jan 2023 UTC via an FALCON 9 launch vehicle from the Air Force Western Test Range (AFWTR). Payload-class satellites include a variety of spacecraft equipped with specific instruments for various scientific and technological missions. These include communications satellites like Starlink; space stations such as the ISS; scientific satellites like the Hubble; Earth observation satellites from companies like Planet Labs, Umbra, and HawkEye 360; GPS; miniature CubeSats for education and research; and military/defense satellites.

Loading next visibility...
Identifier
55432, 2023-014AT
Orbit
LEO
Country
Flag of USUS
Related business
Manufacturer
SpaceX/Seattle
Mission
Operational Commercial Communications
Bus & Motor
STARLINK, Unknown motor
Mass
305 kg wet, ~290 kg dry
Launch date (UTC)
2023-01-31 (3 years ago)
Launch vehicle
FALCON 9
Launch site
Air Force Western Test Range (AFWTR)
Object type
Payload
Rocket body
Debris
Shape & HBR
Box + 1 Pan, 10.1 m
Radar Cross Section
13.562 m², Large (>1 m²)

Expand to show TLE details & history
Last TLE update: 2 days ago

TLE from 2 days ago
0 STARLINK-5637
1 55432U 23014AT  26171.39501138 -.00000268  00000-0 -14663-4 0  9998
2 55432  69.9991 205.4678 0003443 268.8093  91.2671 14.98331330186451
Epoch: 2026-06-20T09:28Z
TLE epoch observation values (Epoch: 2026-06-20T09:28:48.983Z)
Latitude
-0.00007°
Longitude
154.65343°
Altitude
574.529 km
Speed
7.574 km/s
True Right ascension
13h 41m 52s
True Declination
0° 00' 00"
Sunlit
Object was in full shadow at epoch
Visualization orbit readout
Latitude
Unknown
Longitude
Unknown
Altitude
Unknown
Speed
Unknown
Apparent Right ascension
Unknown
Apparent Declination
Unknown
Sunlit
N/A
Visualization observer readout
Local Sidereal Time
21:23:48
Azimuth
Unknown
Elevation
Unknown
Doppler factor
Unknown
Orbital elements
Apogee altitude
572.392 km
Perigee altitude
567.608 km
Semi-major axis
6,948.137 km
Eccentricity
0.00034
Inclination
69.9991°
RAAN
205.4678°
Arg. of periapsis
268.8093°
True anomaly
91.30654°
Mean anomaly
91.2671°
Eccentric anomaly
91.28682°
Mean motion
3.74749 °/min
Orbital period
96.06 mins
BSTAR
-0.000014663
Loading maneuver chart data...
Computing Atmospheric mass density...

Documentation

Showing up to 5 results
|